Tracking 20942 objects as of 10-Jul-2020
HD Live streaming from Space Station
objects crossing your sky now

ONEWEB-0054

Track ONEWEB-0054 now!
10-day predictions
ONEWEB-0054 is classified as:


NORAD ID: 45158
Int'l Code: 2020-008AD
Perigee: 650.5 km
Apogee: 683.8 km
Inclination: 87.5 °
Period: 97.9 minutes
Semi major axis: 7038 km
RCS: Unknown
Launch date: February 6, 2020
Source: United Kingdom (UK)
Launch site: TYURATAM MISSILE AND SPACE COMPLEX (TTMTR)
aabbcc
Your satellite tracking list
Your tracking list is empty




NASA's NSSDC Master Catalog

Two Line Element Set (TLE):
1 45158U 20008AD  20191.91670139 -.00061166 +00000-0 -10191-1 0  9997
2 45158 087.4556 114.8550 0023658 109.6737 159.1567 14.70325374001765
Source of the keplerian elements: AFSPC